CW2449 Weather Reports


time (UTC)temp
C
wind
direction
speed
KPH
gust
KPH
rain 1hr
cm
rain 24hr
cm
rain mn
cm
humidity
%
barometer
mb
20260906064505 27 137 0.0 4.8 0.00 0.00 0.00 100 1011.0
20260906063056 27 141 1.6 6.4 0.00 0.00 0.00 100 1011.1
20260906061519 27 148 3.2 9.7 0.00 0.00 0.00 100 1011.2
20260906060028 27 142 0.0 0.0 0.00 0.00 0.00 100 1011.1
20260906054522 27 143 0.0 3.2 0.00 0.00 0.00 100 1011.2
20260906053010 27 143 0.0 3.2 0.00 0.00 0.00 100 1011.4
20260906051602 27 141 0.0 4.8 0.00 0.00 0.00 100 1011.5
20260906050025 27 141 0.0 0.0 0.00 0.00 0.00 100 1011.2
20260906044503 27 141 1.6 4.8 0.00 0.00 0.00 100 1011.2
20260906043002 27 141 0.0 1.6 0.00 0.00 0.00 100 1011.4
20260906041504 27 141 1.6 4.8 0.00 0.00 0.00 100 1011.4
20260906040032 27 141 3.2 6.4 0.00 0.00 0.00 100 1011.3
20260906034559 27 141 3.2 6.4 0.00 0.00 0.00 100 1011.4
20260906033100 27 115 0.0 4.8 0.00 0.00 0.00 100 1011.4
20260906033002 27 115 1.6 4.8 0.00 0.00 0.00 100 1011.4
20260906031534 27 72 0.0 0.0 0.00 0.00 0.00 100 1011.1
20260906030005 27 72 0.0 0.0 0.00 0.00 0.00 100 1011.0
20260906024602 27 72 0.0 0.0 0.00 0.00 0.00 100 1011.0
20260906024501 27 72 0.0 0.0 0.00 0.00 0.00 100 1011.0
20260906023003 27 72 0.0 0.0 0.00 0.00 0.00 100 1010.7
20260906021604 28 72 0.0 0.0 0.00 0.00 0.00 100 1010.6
20260906020049 28 72 0.0 0.0 0.00 0.00 0.00 100 1010.4
20260906014551 28 72 0.0 0.0 0.00 0.00 0.00 100 1010.2
20260906013100 28 72 0.0 0.0 0.00 0.00 0.00 100 1010.1
20260906013002 28 72 0.0 0.0 0.00 0.00 0.00 100 1010.1
20260906011516 28 72 0.0 0.0 0.00 0.00 0.00 100 1010.0
20260906010001 29 72 0.0 0.0 0.00 0.00 0.00 100 1009.8
20260906004507 30 72 0.0 0.0 0.00 0.00 0.00 18 1009.7
20260906003021 31 72 0.0 0.0 0.00 0.00 0.00 29 1009.6
20260906001506 32 72 0.0 0.0 0.00 0.00 0.00 37 1009.5
20260906000021 34 72 0.0 0.0 0.00 0.00 0.00 43 1009.6
20260905234514 35 72 0.0 0.0 0.00 0.00 0.00 44 1009.6
20260905233011 36 72 0.0 0.0 0.00 0.00 0.00 43 1009.7
20260905231559 36 72 0.0 0.0 0.00 0.00 0.00 43 1009.5
20260905230012 37 74 0.0 3.2 0.00 0.00 0.00 43 1009.4
20260905224510 36 104 0.0 4.8 0.00 0.00 0.00 43 1009.5
20260905223037 36 105 0.0 1.6 0.00 0.00 0.00 44 1009.4
20260905221543 36 105 0.0 1.6 0.00 0.00 0.00 43 1009.5
20260905220034 36 105 4.8 9.7 0.00 0.00 0.00 43 1009.7
20260905214557 37 131 1.6 11.3 0.00 0.00 0.00 41 1009.7
20260905213109 37 75 1.6 11.3 0.00 0.00 0.00 40 1009.8
20260905211549 37 97 3.2 9.7 0.00 0.00 0.00 42 1009.9
20260905210105 37 146 6.4 14.5 0.00 0.00 0.00 41 1010.0
20260905204603 36 106 6.4 11.3 0.00 0.00 0.00 41 1010.2
20260905203004 36 93 4.8 16.1 0.00 0.00 0.00 42 1010.5
20260905201608 37 97 4.8 14.5 0.00 0.00 0.00 42 1010.6
20260905201503 37 107 8.0 14.5 0.00 0.00 0.00 42 1010.6
20260905200120 37 96 4.8 12.9 0.00 0.00 0.00 41 1010.8
20260905194517 37 79 1.6 14.5 0.00 0.00 0.00 42 1011.0
20260905193011 37 101 4.8 9.7 0.00 0.00 0.00 39 1011.3
20260905191531 37 148 4.8 11.3 0.00 0.00 0.00 41 1011.4
20260905190057 37 95 3.2 6.4 0.00 0.00 0.00 41 1011.6
20260905184509 36 74 3.2 14.5 0.00 0.00 0.00 43 1011.9
20260905183047 36 73 1.6 9.7 0.00 0.00 0.00 42 1012.0
20260905181507 36 103 1.6 17.7 0.00 0.00 0.00 42 1012.3
20260905180030 36 93 6.4 14.5 0.00 0.00 0.00 42 1012.5
20260905174513 35 127 0.0 8.0 0.00 0.00 0.00 42 1012.6
20260905173017 36 99 6.4 12.9 0.00 0.00 0.00 41 1012.7
20260905171536 36 87 3.2 6.4 0.00 0.00 0.00 41 1012.9
20260905170027 35 94 1.6 8.0 0.00 0.00 0.00 41 1013.0
20260905164551 35 108 3.2 9.7 0.00 0.00 0.00 39 1013.2
20260905163009 34 147 1.6 11.3 0.00 0.00 0.00 37 1013.3
20260905161507 33 149 1.6 12.9 0.00 0.00 0.00 34 1013.6
20260905160024 33 137 1.6 9.7 0.00 0.00 0.00 26 1013.9
20260905154511 33 78 3.2 8.0 0.00 0.00 0.00 21 1013.9
20260905153001 32 146 3.2 8.0 0.00 0.00 0.00 13 1014.0
20260905151543 31 91 1.6 6.4 0.00 0.00 0.00 100 1013.8
20260905150049 30 80 3.2 9.7 0.00 0.00 0.00 100 1013.9
20260905144505 30 78 0.0 4.8 0.00 0.00 0.00 100 1013.9
20260905143015 29 81 1.6 4.8 0.00 0.00 0.00 100 1013.9
20260905141517 29 105 1.6 4.8 0.00 0.00 0.00 100 1013.9
20260905140043 28 87 0.0 0.0 0.00 0.00 0.00 100 1014.0
20260905134515 27 104 0.0 0.0 0.00 0.00 0.00 100 1014.0
20260905130038 25 88 0.0 1.6 0.00 0.00 0.00 100 1014.1
20260905124559 24 88 0.0 0.0 0.00 0.00 0.00 100 1014.1
20260905124500 24 88 0.0 0.0 0.00 0.00 0.00 100 1014.1
20260905123010 23 88 0.0 0.0 0.00 0.00 0.00 100 1014.0
20260905121507 23 154 0.0 0.0 0.00 0.00 0.00 100 1013.9
20260905120004 23 154 0.0 0.0 0.00 0.00 0.00 100 1013.6
20260905114537 23 68 0.0 0.0 0.00 0.00 0.00 100 1013.4
20260905113043 23 72 0.0 0.0 0.00 0.00 0.00 100 1013.4
20260905111547 23 72 0.0 0.0 0.00 0.00 0.00 100 1013.3
20260905104507 23 72 0.0 0.0 0.00 0.00 0.00 100 1013.0
20260905103011 23 72 0.0 0.0 0.00 0.00 0.00 100 1013.0
20260905101511 23 72 0.0 0.0 0.00 0.00 0.00 100 1012.8
20260905100000 23 72 0.0 0.0 0.00 0.00 0.00 100 1012.8
20260905094612 23 72 0.0 0.0 0.00 0.00 0.00 100 1012.7
20260905093051 23 72 0.0 3.2 0.00 0.00 0.00 100 1012.6
20260905091547 23 84 0.0 0.0 0.00 0.00 0.00 100 1012.6
20260905090014 23 84 0.0 0.0 0.00 0.00 0.00 100 1012.5
20260905084516 23 84 0.0 0.0 0.00 0.00 0.00 100 1012.5
20260905083101 24 84 0.0 0.0 0.00 0.00 0.00 100 1012.7
20260905081501 24 84 0.0 0.0 0.00 0.00 0.00 100 1012.6
20260905080033 24 84 0.0 0.0 0.00 0.00 0.00 100 1012.6
20260905074521 24 84 0.0 0.0 0.00 0.00 0.00 100 1012.7
20260905073100 25 84 0.0 0.0 0.00 0.00 0.00 100 1012.6
20260905071554 25 84 0.0 0.0 0.00 0.00 0.00 100 1012.5
20260905070047 25 84 0.0 0.0 0.00 0.00 0.00 100 1012.6